Tracking 35275 objects as of 9-Sep-2026
HD Live streaming from Space Station
objects crossing your sky now

COSMOS 1186 DEB


COSMOS 1186 DEB is no longer on orbit


NORAD ID: 12484
Int'l Code: 1980-047V
Launch date: June 6, 1980
Source: Commonwealth of Independent States (former USSR) (CIS)
Launch site: PLESETSK MISSILE AND SPACE COMPLEX (PKMTR)
Decay date: 1981-06-18

Note: This is SATELLITE DEBRIS
Your satellite tracking list
Your tracking list is empty




NASA's NSSDC Master Catalog

Two Line Element Set (TLE):
1 12484U 80047  V 81166.06394822  .13640959 +96023-6 +13683-1 0  9999
2 12484 073.9265 347.7353 0020017 268.7970 091.0972 16.10467754057263
Source of the keplerian elements: AFSPC